P/2018 Y2 ( Africano )

Japanese version
Home page
Updated on January 3, 2019

---------------------------------------------------------------------

* Profile

Discovery Date December 31, 2018
Magnitude 19.2 mag
Discoverer B. M. Africano (Mount Lemmon)

* Orbital Elements

Epoch 2018 Dec. 28.0 TT = JDT 2458480.5
T 2018 Dec. 20.13276 TT                                 MPCW
q   3.8737559            (2000.0)            P               Q
n   0.04779072     Peri.  160.20995     -0.13920598     -0.97418333
a   7.5203894      Node   297.43991     +0.87944596     -0.03912025
e   0.4848996      Incl.   11.55229     +0.45518841     -0.22234310
P  20.62
From 43 observations 2018 Dec. 10-2019 Jan. 2, mean residual 0".4.

* Magnitudes Graph

        m1 = 10.5 + 5 log d + 10.0 log r

---------------------------------------------------------------------

The orbital elements are published on M.P.E.C. 2019-A20.
The magnitudes graphs are made with Comet for Windows.

---------------------------------------------------------------------

Copyright(C) Seiichi Yoshida (comet@aerith.net). All rights reserved.